Regional Weather Roundup
Issued by NWS

Home | Current Version | Previous Version | Text Only | Print | Product List | Glossary Off
Versions: 1 2 3 4 5 6 7 8 9 10 11 12 13 14 15 16 17 18 19 20 21 22 23 24 25 26 27 28 29 30 31 32 33 34 35 36 37 38 39 40 41 42 43 44 45 46 47 48 49 50

000
ASUS43 KLOT 220308
RWRIL

ILLINOIS REGIONAL WEATHER ROUNDUP
NATIONAL WEATHER SERVICE CHICAGO/ROMEOVILLE IL
900 PM CST SAT JAN 21 2017

NOTE: "FAIR" INDICATES FEW OR NO CLOUDS BELOW 12,000 FEET WITH NO
SIGNIFICANT WEATHER AND/OR OBSTRUCTIONS TO VISIBILITY.

* THESE STATIONS ARE NOT UNDER NWS QUALITY CONTROL. THEY ALSO MAY NOT
  REPORT WEATHER SUCH AS PRECIPITATION OR FOG.

ILZ001-002-007-009-015-016-024-220400-
NORTHWEST ILLINOIS

CITY           SKY/WX    TMP DP  RH WIND       PRES   REMARKS
MOLINE         CLOUDY    43  39  86 SW5       29.58R
STERLING*      CLOUDY    41  40  96 CALM      29.59R FOG
SAVANNA*       FOG       40  40  99 CALM      29.58R VSB 1
$$

ILZ003-004-008-010-011-017-018-220400-
NORTH CENTRAL ILLINOIS

CITY           SKY/WX    TMP DP  RH WIND       PRES   REMARKS
ROCKFORD       CLOUDY    43  40  89 SW5       29.60R
FREEPORT*      CLOUDY    40  39  99 SW5       29.59R FOG
ROCHELLE*      CLOUDY    41  41  99 CALM      29.59S FOG
DE KALB*       FOG       41  41  99 NW5       29.59S VSB 1/4
$$

ILZ005-006-012>014-019>023-220400-
NORTHEAST ILLINOIS

CITY           SKY/WX    TMP DP  RH WIND       PRES   REMARKS
CHICAGO-OHARE  PTCLDY    44  41  89 NW6       29.57R
CHICAGO-MIDWAY PTCLDY    48  41  76 SW3       29.58R
AURORA         FOG       41  40  96 NW6       29.58R VSB 1/4
LANSING*       FOG       38  38 100 CALM      29.59R VSB 1/4
JOLIET*        FOG       37  37 100 CALM      29.59R VSB 1/4
WAUKEGAN       CLOUDY    43  42  97 W6        29.57S FOG
DUPAGE AIRPORT FOG       42  40  92 NW7       29.58R VSB 1/4
KANKAKEE*      PTCLDY    47  44  89 CALM      29.59S
WHEELING       CLEAR     44  41  89 NW5       29.59R
MORRIS*        PTCLDY    41  40  94 CALM      29.58R FOG
ROMEOVILLE*    CLOUDY    44  44  99 CALM      29.59R
NORTHERLY ISL    N/A     50  42  74 W2          N/A
$$

LMZ740>746-220400-
SOUTHERN LAKE MICHIGAN

STATION/POSITION SKY/WX   TEMP    WIND        PRES    VSBY  WAVE
                          AIR SEA DIR/SP/G                  HT/PER
                          (F)     (DEG/KT/KT) (MB)    (MI)  (FT/S)
HARRISON CRIB              54     270/  7/  8   N/A
BURNHAM HARBOR             50     290/  2/  5   N/A
CALUMET HARBOR             46     250/  2/  2 1001.1R
BURNS HARBOR               47     230/  5/  6 1002.4R
MICHIGAN CITY              53     180/  5/  5   N/A
$$

ILZ025>027-034>036-040-047-049-050-058-095>099-220400-
WEST-CENTRAL ILLINOIS

CITY           SKY/WX    TMP DP  RH WIND       PRES   REMARKS
QUINCY         CLOUDY    44  42  93 NE8       29.57R
GALESBURG*     CLOUDY    35  35 100 CALM      29.59R FOG
MACOMB*        FOG       38  38  99 N8        29.60S VSB 1   WCI  32
JACKSONVILLE*  CLOUDY    46  42  86 E3        29.57S
PITTSFIELD*    CLOUDY    51  44  77 NE6       29.58R
$$

ILZ028>032-037-038-041>044-048-051>054-059>061-220400-
CENTRAL ILLINOIS

CITY           SKY/WX    TMP DP  RH WIND       PRES   REMARKS
PONTIAC        MOCLDY    43  42  98 SE3       29.60R
BLOOMINGTON    MOCLDY    48  42  80 CALM      29.59R
DECATUR        CLOUDY    49  48  97 NE3       29.58R
PEORIA         CLEAR     46  43  89 N5        29.58R
LACON*         PTCLDY    41  40  99 CALM      29.59R FOG
LINCOLN*       MOCLDY    45  43  93 CALM      29.59R
SPRINGFIELD    CLOUDY    50  44  80 N5        29.58R
TAYLORVILLE    CLOUDY    48  47  97 N8        29.57R
$$

ILZ033-039-045-046-055>057-062-063-220400-
EAST-CENTRAL ILLINOIS

CITY           SKY/WX    TMP DP  RH WIND       PRES   REMARKS
CHAMPAIGN      MOCLDY    52  45  77 N3        29.58R
RANTOUL*       PTCLDY    49  48  95 NW5       29.58R
MATTOON        CLOUDY    55  51  86 S5        29.57R
PARIS*         PTCLDY    52  51  97 CALM      29.59R
$$

ILZ079-100>102-220400-
SOUTHWEST ILLINOIS

CITY           SKY/WX    TMP DP  RH WIND       PRES   REMARKS
ALTON          CLOUDY    52  43  71 CALM      29.56R
BELLEVILLE     CLOUDY    58  56  95 VRB3      29.54S
CAHOKIA*       CLOUDY    54  46  74 CALM      29.55R
SPARTA*        MOCLDY    58  53  82 S3        29.57S
$$

ILZ064>066-069>071-074>076-080>082-084>086-088>090-092>094-220400-
SOUTH-CENTRAL ILLINOIS

CITY           SKY/WX    TMP DP  RH WIND       PRES   REMARKS
CARBONDALE     PTCLDY    54  52  93 SE3       29.57S
CAIRO*         CLOUDY    54  52  93 E5        29.56F
EFFINGHAM*     CLOUDY    59  53  80 S3        29.59S
MARION         CLOUDY    55  48  76 CALM      29.58S
MT. VERNON     CLOUDY    51  49  92 CALM      29.58S
CENTRALIA*     CLOUDY    59  54  83 S7        29.56S
SALEM*         CLOUDY    62  52  71 S8        29.57S
METROPOLIS*    CLOUDY    57  51  81 CALM      29.58S
$$

ILZ067-068-072-073-078-083-087-091-220400-
SOUTHEAST ILLINOIS

CITY           SKY/WX    TMP DP  RH WIND       PRES   REMARKS
LAWRENCEVILLE  MOCLDY    52  49  89 S8        29.59R
FLORA*         MOCLDY    54  51  89 S5        29.58S
FAIRFIELD*     CLEAR     55  50  85 CALM      29.57S
HARRISBURG*    CLOUDY    53  50  90 CALM      29.58S
ROBINSON*      CLOUDY    51  49  92 S5        29.59R
CARMI*         PTCLDY    53  50  89 S7        29.58S
$$

ABBREVIATIONS USED IN REMARKS
   TC - TEMPERATURE IN CELSIUS
  WCI - WIND CHILL INDEX
   HX - HEAT INDEX
  VSB - VISIBILITY
$$





USA.gov is the U.S. government's official web portal to all federal, state and local government web resources and services.